• In Hungary
  • List of Countries
  • For 7 days
  • Water Temperature
  • Satellite Maps
  • Weather Map
  • News
  • Weather Widgets
  • user-avatar
    Login

    Hourly Weather Semey

    Today, 27 May, Sunday

    Time Temperature Precipitation Wind Pressure Humidity
    00:00 +21°C° 0 mm 8 mps 737 mmHg 44%
    01:00 +20°C° 0 mm 8 mps 737 mmHg 44%
    02:00 +20°C° 0 mm 8 mps 737 mmHg 45%
    03:00 +20°C° 0 mm 8 mps 737 mmHg 47%
    04:00 +18°C° 0 mm 8 mps 736 mmHg 49%
    05:00 +18°C° 0 mm 7 mps 736 mmHg 51%
    06:00 +21°C° 0 mm 8 mps 735 mmHg 47%
    07:00 +23°C° 0 mm 8 mps 735 mmHg 44%
    08:00 +24°C° 0 mm 9 mps 735 mmHg 40%
    09:00 +27°C° 0 mm 9 mps 735 mmHg 36%
    10:00 +29°C° 0 mm 9 mps 734 mmHg 31%
    11:00 +32°C° 0 mm 9 mps 734 mmHg 27%
    12:00 +33°C° 0 mm 9 mps 733 mmHg 25%
    13:00 +34°C° 0 mm 9 mps 733 mmHg 23%
    14:00 +34°C° 0 mm 9 mps 732 mmHg 21%
    15:00 +34°C° 0 mm 8 mps 732 mmHg 22%
    16:00 +34°C° 0 mm 7 mps 731 mmHg 23%
    17:00 +33°C° 0 mm 5 mps 730 mmHg 25%
    18:00 +32°C° 0 mm 6 mps 730 mmHg 27%
    19:00 +29°C° 0 mm 7 mps 731 mmHg 29%
    20:00 +27°C° 0 mm 8 mps 731 mmHg 32%
    21:00 +22°C° 0 mm 8 mps 731 mmHg 41%
    22:00 +18°C° 0 mm 8 mps 732 mmHg 51%
    23:00 +13°C° 0 mm 8 mps 732 mmHg 60%

    Tomorrow, 28 May, Monday

    Time Temperature Precipitation Wind Pressure Humidity
    00:00 +12°C° 0 mm 7 mps 733 mmHg 62%
    01:00 +10°C° 0 mm 7 mps 733 mmHg 65%
    02:00 +9°C° 0 mm 6 mps 734 mmHg 67%
    03:00 +8°C° 0 mm 6 mps 735 mmHg 68%
    04:00 +8°C° 0 mm 6 mps 735 mmHg 70%
    05:00 +7°C° 0 mm 6 mps 736 mmHg 71%
    06:00 +7°C° 0 mm 6 mps 736 mmHg 71%
    07:00 +8°C° 0 mm 6 mps 737 mmHg 71%
    08:00 +8°C° 0 mm 6 mps 738 mmHg 71%
    09:00 +8°C° 0.1 mm 6 mps 738 mmHg 70%
    10:00 +8°C° 0.1 mm 5 mps 739 mmHg 70%
    11:00 +8°C° 0.1 mm 5 mps 739 mmHg 69%
    12:00 +7°C° 0.6 mm 5 mps 740 mmHg 72%
    13:00 +7°C° 0.6 mm 5 mps 741 mmHg 74%
    14:00 +6°C° 0.6 mm 5 mps 741 mmHg 77%
    15:00 +7°C° 0.1 mm 4 mps 742 mmHg 75%
    16:00 +7°C° 0.1 mm 4 mps 742 mmHg 73%
    17:00 +8°C° 0.1 mm 3 mps 742 mmHg 72%
    18:00 +8°C° 0.1 mm 3 mps 743 mmHg 73%
    19:00 +8°C° 0.1 mm 3 mps 743 mmHg 74%
    20:00 +8°C° 0.1 mm 3 mps 743 mmHg 75%
    21:00 +7°C° 0.1 mm 4 mps 744 mmHg 75%
    22:00 +7°C° 0.1 mm 5 mps 744 mmHg 75%
    23:00 +6°C° 0.1 mm 5 mps 744 mmHg 75%

    Day after tomorrow, 29 May, Tuesday

    Time Temperature Precipitation Wind Pressure Humidity
    00:00 +7°C° 0 mm 5 mps 744 mmHg 76%
    01:00 +8°C° 0 mm 5 mps 743 mmHg 76%
    02:00 +9°C° 0 mm 5 mps 743 mmHg 76%
    03:00 +9°C° 0.1 mm 5 mps 743 mmHg 76%
    04:00 +9°C° 0.1 mm 6 mps 744 mmHg 75%
    05:00 +10°C° 0.1 mm 6 mps 744 mmHg 75%
    06:00 +11°C° 0 mm 6 mps 744 mmHg 67%
    07:00 +14°C° 0 mm 7 mps 744 mmHg 60%
    08:00 +15°C° 0 mm 7 mps 744 mmHg 53%
    09:00 +17°C° 0 mm 7 mps 744 mmHg 47%
    10:00 +20°C° 0 mm 7 mps 744 mmHg 41%
    11:00 +21°C° 0 mm 8 mps 743 mmHg 35%
    12:00 +22°C° 0 mm 7 mps 743 mmHg 34%
    13:00 +22°C° 0 mm 7 mps 742 mmHg 33%
    14:00 +23°C° 0 mm 7 mps 741 mmHg 32%
    15:00 +23°C° 0 mm 6 mps 741 mmHg 31%
    16:00 +23°C° 0 mm 6 mps 740 mmHg 31%
    17:00 +23°C° 0 mm 5 mps 740 mmHg 31%
    18:00 +21°C° 0 mm 5 mps 739 mmHg 36%
    19:00 +20°C° 0 mm 5 mps 739 mmHg 41%
    20:00 +17°C° 0 mm 5 mps 739 mmHg 47%
    21:00 +16°C° 0 mm 5 mps 738 mmHg 47%
    22:00 +16°C° 0 mm 6 mps 738 mmHg 48%
    23:00 +15°C° 0 mm 6 mps 738 mmHg 48%

    30 May, Wednesday

    Time Temperature Precipitation Wind Pressure Humidity
    00:00 +15°C° 0 mm 6 mps 737 mmHg 49%
    01:00 +14°C° 0 mm 6 mps 736 mmHg 49%
    02:00 +14°C° 0 mm 6 mps 736 mmHg 49%
    03:00 +14°C° 0 mm 6 mps 735 mmHg 49%
    04:00 +14°C° 0 mm 6 mps 735 mmHg 50%
    05:00 +14°C° 0 mm 6 mps 734 mmHg 50%
    06:00 +16°C° 0 mm 7 mps 734 mmHg 44%
    07:00 +18°C° 0 mm 9 mps 733 mmHg 38%
    08:00 +22°C° 0 mm 10 mps 733 mmHg 32%
    09:00 +23°C° 0 mm 10 mps 733 mmHg 28%
    10:00 +26°C° 0 mm 10 mps 732 mmHg 24%
    11:00 +28°C° 0 mm 10 mps 732 mmHg 21%
    12:00 +28°C° 0 mm 11 mps 732 mmHg 19%
    13:00 +29°C° 0 mm 12 mps 732 mmHg 18%
    14:00 +29°C° 0 mm 13 mps 731 mmHg 16%
    15:00 +28°C° 0 mm 13 mps 732 mmHg 18%
    16:00 +26°C° 0 mm 12 mps 732 mmHg 19%
    17:00 +23°C° 0 mm 12 mps 733 mmHg 21%
    18:00 +22°C° 0 mm 10 mps 733 mmHg 24%
    19:00 +19°C° 0 mm 9 mps 734 mmHg 27%
    20:00 +17°C° 0 mm 7 mps 734 mmHg 30%
    21:00 +16°C° 0 mm 8 mps 734 mmHg 35%
    22:00 +15°C° 0 mm 9 mps 735 mmHg 40%
    23:00 +12°C° 0 mm 10 mps 735 mmHg 46%

    31 May, Thursday

    Time Temperature Precipitation Wind Pressure Humidity
    00:00 +12°C° 0.1 mm 10 mps 736 mmHg 54%
    01:00 +11°C° 0.1 mm 11 mps 737 mmHg 62%
    02:00 +9°C° 0.1 mm 11 mps 738 mmHg 70%
    03:00 +9°C° 0 mm 10 mps 740 mmHg 68%
    04:00 +8°C° 0 mm 10 mps 741 mmHg 66%
    05:00 +8°C° 0 mm 9 mps 743 mmHg 63%
    06:00 +10°C° 0 mm 8 mps 744 mmHg 58%
    07:00 +11°C° 0 mm 7 mps 745 mmHg 53%
    08:00 +12°C° 0 mm 7 mps 746 mmHg 47%
    09:00 +14°C° 0 mm 6 mps 746 mmHg 43%
    10:00 +15°C° 0 mm 6 mps 747 mmHg 39%
    11:00 +16°C° 0 mm 5 mps 747 mmHg 34%
    12:00 +16°C° 0 mm 5 mps 747 mmHg 34%
    13:00 +16°C° 0 mm 5 mps 746 mmHg 34%
    14:00 +17°C° 0 mm 5 mps 746 mmHg 34%
    15:00 +17°C° 0 mm 5 mps 746 mmHg 33%
    16:00 +19°C° 0 mm 5 mps 746 mmHg 31%
    17:00 +19°C° 0 mm 5 mps 746 mmHg 30%
    18:00 +18°C° 0 mm 4 mps 746 mmHg 33%
    19:00 +17°C° 0 mm 4 mps 746 mmHg 36%
    20:00 +15°C° 0 mm 4 mps 746 mmHg 39%
    21:00 +14°C° 0 mm 4 mps 746 mmHg 39%
    22:00 +14°C° 0 mm 4 mps 746 mmHg 39%
    23:00 +14°C° 0 mm 4 mps 746 mmHg 39%

    1 June, Friday

    Time Temperature Precipitation Wind Pressure Humidity
    00:00 +13°C° 0 mm 5 mps 746 mmHg 39%
    01:00 +13°C° 0 mm 5 mps 746 mmHg 38%
    02:00 +13°C° 0 mm 5 mps 745 mmHg 38%
    03:00 +13°C° 0 mm 5 mps 746 mmHg 39%
    04:00 +13°C° 0 mm 6 mps 746 mmHg 40%
    05:00 +13°C° 0 mm 6 mps 746 mmHg 41%
    06:00 +15°C° 0 mm 7 mps 746 mmHg 37%
    07:00 +18°C° 0 mm 7 mps 746 mmHg 34%
    08:00 +21°C° 0 mm 8 mps 746 mmHg 30%
    09:00 +22°C° 0 mm 8 mps 746 mmHg 28%
    10:00 +23°C° 0 mm 8 mps 745 mmHg 26%
    11:00 +26°C° 0 mm 8 mps 745 mmHg 24%
    12:00 +26°C° 0 mm 8 mps 745 mmHg 24%
    13:00 +27°C° 0 mm 8 mps 744 mmHg 23%
    14:00 +28°C° 0 mm 7 mps 744 mmHg 22%
    15:00 +28°C° 0 mm 7 mps 744 mmHg 23%
    16:00 +28°C° 0 mm 6 mps 743 mmHg 24%
    17:00 +28°C° 0 mm 5 mps 743 mmHg 24%
    18:00 +26°C° 0 mm 5 mps 743 mmHg 28%
    19:00 +23°C° 0 mm 4 mps 743 mmHg 31%
    20:00 +22°C° 0 mm 3 mps 743 mmHg 35%
    21:00 +21°C° 0 mm 3 mps 743 mmHg 36%
    22:00 +20°C° 0 mm 3 mps 743 mmHg 37%
    23:00 +20°C° 0 mm 3 mps 743 mmHg 39%
    Show more